Regional Weather Roundup
Issued by NWS

Home | Current Version | Previous Version | Graphics & Text | Print | Product List | Glossary On
Versions: 1 2 3 4 5 6 7 8 9 10 11 12 13 14 15 16 17 18 19 20 21 22 23 24 25 26 27 28 29 30 31 32 33 34 35 36 37 38 39 40 41 42 43 44 45 46 47 48 49 50
000
ASUS43 KLOT 270409
RWRIL

ILLINOIS REGIONAL WEATHER ROUNDUP
NATIONAL WEATHER SERVICE CHICAGO/ROMEOVILLE IL
1100 PM CDT FRI MAY 26 2017

NOTE: "FAIR" INDICATES FEW OR NO CLOUDS BELOW 12,000 FEET WITH NO
SIGNIFICANT WEATHER AND/OR OBSTRUCTIONS TO VISIBILITY.

* THESE STATIONS ARE NOT UNDER NWS QUALITY CONTROL. THEY ALSO MAY NOT
  REPORT WEATHER SUCH AS PRECIPITATION OR FOG.

ILZ001-002-007-009-015-016-024-270500-
NORTHWEST ILLINOIS

CITY           SKY/WX    TMP DP  RH WIND       PRES   REMARKS
MOLINE         PTCLDY    62  57  83 NE5       29.86R HAZE
STERLING*      CLOUDY    59  56  89 NE7       29.86R
SAVANNA*       PTCLDY    56  55  94 NE3       29.87R
$$

ILZ003-004-008-010-011-017-018-270500-
NORTH CENTRAL ILLINOIS

CITY           SKY/WX    TMP DP  RH WIND       PRES   REMARKS
ROCKFORD       PTCLDY    58  54  86 E3        29.87F
FREEPORT*      MOCLDY    55  54  95 CALM      29.89S
ROCHELLE*      CLOUDY    57  55  93 NE6       29.87R
DE KALB*       CLOUDY    56  55  95 NE3       29.87S
PERU*          CLEAR     58  56  94 NE6       29.84S FOG
$$

ILZ005-006-012>014-019>023-270500-
NORTHEAST ILLINOIS

CITY           SKY/WX    TMP DP  RH WIND       PRES   REMARKS
CHICAGO-OHARE  CLOUDY    56  53  90 NE7       29.85R
CHICAGO-MIDWAY CLOUDY    58  55  90 NE8       29.84S
AURORA         MOCLDY    57  56  96 NE6       29.85S
LANSING*       CLOUDY    56  55  99 NE8       29.84S
JOLIET*        CLOUDY    60  58  94 NE3       29.84S
WAUKEGAN       PTCLDY    53  52  96 CALM      29.86R
DUPAGE AIRPORT CLOUDY    56  56 100 NE7       29.85R FOG
KANKAKEE*      CLOUDY    61  60  96 CALM      29.83R
WHEELING       CLOUDY    56  55  97 CALM      29.86S
MORRIS*        MOCLDY    58  56  92 CALM      29.83S
ROMEOVILLE*    CLOUDY    58  58 100 NE8       29.84S FOG
$$

LMZ740>746-270500-
SOUTHERN LAKE MICHIGAN

STATION/POSITION SKY/WX   TEMP    WIND        PRES    VSBY  WAVE
                          AIR SEA DIR/SP/G                  HT/PER
                          (F)     (DEG/KT/KT) (MB)    (MI)  (FT/S)
SOUTHERN BUOY              48 46   60/  6/  6 1011.6          0
WILMETTE HARBOR            50 51                N/A           1/ 2
HARRISON CRIB              54      70/ 12/ 13   N/A
BURNHAM HARBOR             54     360/  4/  9   N/A
CALUMET HARBOR             54      30/  5/  7 1010.2F
BURNS HARBOR               56      70/ 16/ 17 1010.8F
MICHIGAN CITY              55      40/ 13/ 14   N/A
MICHIGAN CITY 6N           54 53   60/ 12/ 14   N/A           2/ 3
ST. JOSEPH                 57 56  100/  8/ 10 1011.0          1/ 3
$$

ILZ025>027-034>036-040-047-049-050-058-095>099-270500-
WEST-CENTRAL ILLINOIS

CITY           SKY/WX    TMP DP  RH WIND       PRES   REMARKS
QUINCY         CLEAR     65  62  90 NE6       29.85R
GALESBURG*     PTCLDY    61  61 100 CALM      29.85R FOG
MACOMB*        CLEAR     62  60  94 N3        29.88R
JACKSONVILLE*  MOCLDY    68  65  89 N5        29.84R
PITTSFIELD*    CLEAR     69  66  90 N3        29.86R
$$

ILZ028>032-037-038-041>044-048-051>054-059>061-270500-
CENTRAL ILLINOIS

CITY           SKY/WX    TMP DP  RH WIND       PRES   REMARKS
PONTIAC        CLOUDY    63  62  99 NE12      29.83S FOG
BLOOMINGTON    CLOUDY    66  64  93 NW6       29.84R
DECATUR        MOCLDY    71  66  84 SW7       29.81R
PEORIA         CLEAR     64  62  93 CALM      29.84R
LACON*         CLEAR     60  60  99 CALM      29.83R FOG
LINCOLN*       MOCLDY    70  66  86 CALM      29.83R
SPRINGFIELD    CLOUDY    72  67  84 NW5       29.84R
TAYLORVILLE    CLOUDY    70  67  90 SW7       29.82R
$$

ILZ033-039-045-046-055>057-062-063-270500-
EAST-CENTRAL ILLINOIS

CITY           SKY/WX    TMP DP  RH WIND       PRES   REMARKS
CHAMPAIGN      CLOUDY    69  66  90 W5        29.81S
RANTOUL*       CLOUDY    67  66  97 NW3       29.81R
MATTOON        MOCLDY    70  67  90 SW8       29.81R
PARIS*         MOCLDY    69  66  90 SW6       29.83S
$$

ILZ079-100>102-270500-
SOUTHWEST ILLINOIS

CITY           SKY/WX    TMP DP  RH WIND       PRES   REMARKS
ALTON          CLEAR     71  67  85 SW7       29.84R
BELLEVILLE     PTCLDY    71  67  87 SW5       29.85R
CAHOKIA*       PTCLDY    74  66  76 SW6       29.83R
SPARTA*        CLOUDY    71  66  84 SW6       29.86S
$$

ILZ064>066-069>071-074>076-080>082-084>086-088>090-092>094-270500-
SOUTH-CENTRAL ILLINOIS

CITY           SKY/WX    TMP DP  RH WIND       PRES   REMARKS
CARBONDALE     CLOUDY    71  69  93 SW8       29.86R
CAIRO*         CLOUDY    71  69  94 S7        29.87R
EFFINGHAM*     MOCLDY    71  68  90 S7        29.84S
MARION         MOCLDY    72  72 100 SW6       29.87R
MT. VERNON       N/A     70  67  90 SW7       29.85R
CENTRALIA*     CLOUDY    71  68  89 SW7       29.83S
SALEM*         CLOUDY    73  66  80 SW7       29.84S
METROPOLIS*    CLOUDY    72  69  92 CALM      29.88S
$$

ILZ067-068-072-073-078-083-087-091-270500-
SOUTHEAST ILLINOIS

CITY           SKY/WX    TMP DP  RH WIND       PRES   REMARKS
LAWRENCEVILLE  CLOUDY    73  66  78 SW7       29.84S
FLORA*         CLOUDY    73  67  83 SW7       29.84S
FAIRFIELD*     CLOUDY    71  68  91 S5        29.84S
HARRISBURG*    CLOUDY    71  69  92 SW7       29.86S
ROBINSON*      CLOUDY    72  66  83 SW5       29.84S
CARMI*         MOCLDY    71  68  91 S7        29.85R
$$

ABBREVIATIONS USED IN REMARKS
   TC - TEMPERATURE IN CELSIUS
  WCI - WIND CHILL INDEX
   HX - HEAT INDEX
  VSB - VISIBILITY
$$





USA.gov is the U.S. government's official web portal to all federal, state and local government web resources and services.